Location: Newark
(47.9297°N, 19.1367°E)
Time: 10:24:20
(UTC+00:00)

N. Korean satellite - Visible Passes

Search period start: 24 September 2020 00:00
Search period end: 04 October 2020 00:00
Orbit: 455 x 503 km, 97.2° (Epoch: 23 September)

Date Brightness Start Highest point End Pass type
(mag) Time Alt. Az. Time Alt. Az. Time Alt. Az.
25 Sep 8.9 03:46:17 10° NNE 03:49:31 29° E 03:52:42 10° SSE visible
26 Sep 9.8 03:21:04 10° NE 03:23:18 15° E 03:25:31 10° SE visible
28 Sep 8.0 04:01:22 10° NNE 04:04:52 44° E 04:08:18 10° S visible
29 Sep 9.4 03:35:48 10° NE 03:38:42 22° E 03:41:33 10° SSE visible
30 Sep 10.1 03:11:06 10° ENE 03:12:26 12° E 03:13:45 10° ESE visible
02 Oct 8.6 03:50:45 10° NNE 03:54:02 32° E 03:57:16 10° SSE visible
03 Oct 9.8 03:25:24 10° NE 03:27:49 17° E 03:30:12 10° SE visible
